Location: *
(32.8667°N, 13.1833°E)
Time: 07:00:09
(UTC+00:00)

Cosmos 2360 Rocket - Pass Details

Date: 18 July 2019
Orbit: 835 x 844 km, 71.0° (Epoch: 21 August)

Event Time Altitude Azimuth Distance (km) Brightness Sun altitude
Exits shadow 20:55:38 - 225° (SW) 3,062 5.0 -26.9°
Reaches altitude 10° 20:57:24 10° 232° (SW) 2,448 4.6 -27.1°
Maximum altitude 21:02:28 34° 296° (WNW) 1,345 3.7 -27.7°
Drops below altitude 10° 21:07:34 10° 1° (N) 2,455 5.3 -28.3°
Sets 21:10:14 0° 11° (N) 3,391 6.0 -28.7°
